Regional Weather Roundup
Issued by NWS Midland/Odessa, TX

Skip options and go directly to product.
Home | Oldest Version | Previous Version | Current Version | All | Text Only | Save Text | Print | Product List | Glossary Off

Skip product version selection by date and time.   

225
ASUS44 KMAF 020910
RWRMAF
MIDLAND AREA WEATHER ROUNDUP
NATIONAL WEATHER SERVICE MIDLAND TX
400 AM CDT THU JUL 02 2015

...IN SOUTHWEST TEXAS AND SOUTHEAST NEW MEXICO...

CITY           SKY/WX    TMP DP  RH WIND       PRES   REMARKS
ALPINE         NOT AVBL
ANDREWS        NOT AVBL
ARTESIA        CLEAR     72  63  73 SE9       30.01F
BIG SPRING     NOT AVBL
CARLSBAD       CLEAR     72  62  71 SE6       29.99F
DRYDEN           N/A     72  66  81 VRB5      29.97F
FORT STOCKTON  CLEAR     71  64  78 SE15      29.98F
GUAD PASS      CLEAR     68  58  70 NE13      30.14F
HOBBS          CLEAR     66  66 100 SE7       30.04F
MARFA          CLEAR    N/A N/A N/A CALM      30.12F
MIDLAND AIRPK  CLOUDY    74  65  74 S10       30.01F
MIDLAND INTL   CLOUDY    73  67  81 SE9       30.00F
ODESSA         CLOUDY    73  65  75 S14       30.01F
PECOS          NOT AVBL
PRESIDIO       NOT AVBL
SEMINOLE       NOT AVBL
SNYDER         NOT AVBL
WINK           CLEAR     73  65  75 SE12      29.96F
$$
...OTHER STATIONS IN TEXAS...

CITY           SKY/WX    TMP DP  RH WIND       PRES   REMARKS
ABILENE        CLEAR     73  66  78 S13       29.98R
AMARILLO       CLOUDY    72  63  73 W7        30.04S
AUSTIN         CLOUDY    70  70 100 S7        30.00R
BROWNSVILLE    PTCLDY    73  70  90 E5        29.97F
CORPUS CHRISTI CLOUDY    73  71  93 S3        29.97F
DALLAS FTW     PTCLDY    77  68  73 S13       29.95R
DEL RIO        CLEAR     73  65  75 SE8       29.96F
EL PASO        PTCLDY    82  50  32 E5        29.99R
HOUSTON INT    MOCLDY    72  71  97 CALM      30.01S
LUBBOCK        MOCLDY    73  63  70 SW18      30.00F
SAN ANGELO     CLEAR     72  66  81 S9        29.99F
SAN ANTONIO    PTCLDY    72  68  87 S7        30.01R
WACO           PTCLDY    72  70  93 S8        29.99R
WICHITA FALLS  NOT AVBL
$$
...OTHER LOCATIONS IN NEW MEXICO...

CITY           SKY/WX    TMP DP  RH WIND       PRES   REMARKS
ALAMAGORDO     PTCLDY    73  46  38 N6        30.02S
ALBUQUERQUE    CLOUDY    79  49  34 E17       30.11F
CANNON AFB     CLOUDY    74  58  57 NW12      30.10R
CLOVIS         CLOUDY    73  57  56 W12         N/A
HOLLOMAN AFB   PTCLDY    74  50  41 SW5       29.99F
ROSWELL        CLEAR     69  59  70 CALM      30.02S
RUIDOSO        PTCLDY    63  48  59 CALM      30.25S
SANTA FE       CLOUDY    64  56  75 N7        30.22S
TRUTH OR CONSE CLEAR     80  48  32 NW10      30.06F
TUCUMCARI      CLOUDY    75  59  57 N12       30.09F
$$

USA.gov is the U.S. government's official web portal to all federal, state and local government web resources and services.